Погода в Колывани

Погода в Колывани : погода сейчас, прогноз погоды и архив. Всё, что Вы хотите узнать о погоде в Колывани!

Хотите узнать прогноз погоды в Колывани? Тогда Вам сюда: Погода в Колывани

Поиск расширенной информации на нашем сайте:

Другие новости

Новости СМИ2

Главная страница сайта

Новости сайта

03.07.2017

Напоминаем, что на нашем специализированном сайте Метеоцентр.Азия вы можете получить высокодетализированные автоматические прогнозы погоды по пунктам России, СНГ и мира в авиационном формате (включающие направление и скорость ветра, видимость, явления погоды, количество и форму облачности, нижнюю и верхнюю границу облачности).


Погода в Колывани - сегодня

Время (UTC), дата Ветер
(°,м/с) 
Видим.   Явления Облачность Т
(°С)
Тd
(°С)
f(%) Тe
(°С)
Pmin
(гПа)
dP
(гПа)
Po
(мм)
O2
(г/м3)
Тmin Tmax R s Состояние
почвы
18 20.11.17 210 (ЮЗ) 20000 м  {ливн. осадки}  9/9 600 м кучево-дожд. 
[Cb cap]
-2.3 -3.6 91 -4  1032.3  -0.7  760  309           
21 20.11.17 210 (ЮЗ) 4000 м  слаб. ливневой снег  10/10 600 м кучево-дожд. 
[Cb cap]
-2.4 -3.2 94 -5  1031.7  -0.6  760  309           
00 21.11.17 210 (ЮЗ) 4000 м  слаб. ливневой снег  10/10 300 м кучево-дожд. 
[Cb cap]
-2.2 -2.8 96 -5  1030.8  -0.8  759  309  -2.4    0.5  14  равномерный
сухой снег
100% 
03 21.11.17 230 (ЮЗ) 4000 м  слаб. ливневой снег  10/10 300 м кучево-дожд. 
[Cb cap]
-1.7 -2.3 96 -4  1031.1  0.3  759  308           
06 21.11.17 240 (ЮЗ) 4000 м  слаб. ливневой снег  10/10 300 м кучево-дожд. 
[Cb cap]
-1.3 -2.9 89 -3  1032.1  760  308           
09 21.11.17 240 (ЮЗ) 20000 м    10/10 600 м кучево-дожд. 
[Cb cap]
-1.3 -4.1 81 -3  1032.7  0.6  760  308           
12 21.11.17 210 (ЮЗ) 20000 м    10/10 600 м кучево-дожд. 
[Cb cap]
-1.8 -4 85 -4  1032.9  0.2  761  309    -1.1  0.7     
15 21.11.17 210 (ЮЗ) 20000 м    10/10 1000 м 
[Sc]
-1.9 -3.6 88 -5  1031.6  -1.2  760  309           
18 21.11.17 220 (ЮЗ) 4000 м  слаб. ливневой снег  10/10 600 м кучево-дожд. 
[Cb cap]
-2.4 -3.4 93 -5  1030.4  -1.3  759  309           
21 21.11.17 230 (ЮЗ) 20000 м  {ливн. осадки}  10/10 600 м кучево-дожд. 
[Cb cap]
-1.3 -4.2 81 -4  1029.3  -1  758  307           
00 22.11.17 250 (З) 3{10}  20000 м  {ливн. осадки}  10/10 600 м кучево-дожд. 
[Cb cap]
-1.5 -4.5 80 -3  1029.9  0.6  758  308  -2.5    0.3  13  равномерный
сухой снег
100% 
03 22.11.17 230 (ЮЗ) 4000 м  слаб. ливневой снег  10/10 600 м кучево-дожд. 
[Cb cap]
-1.9 -3.8 87 -3  1031.9  760  309           
06 22.11.17 230 (ЮЗ) 4000 м  слаб. ливневой снег  10/10 600 м кучево-дожд. 
[Cb cap]
-1.4 -2.4 93 -3  1032.9  761  308           
09 22.11.17 230 (ЮЗ) 20000 м  {ливн. осадки}  10/10 600 м кучево-дожд. 
[Cb cap]
-1.3 -3.1 88 -2  1033.4  0.5  761  308           
12 22.11.17 210 (ЮЗ) 20000 м  {ливн. осадки}  10/10 1000 м 
[Sc]
-1.9 -3.3 90 -3  1033.7  0.2  761  309    -1.2  0.6     
15 22.11.17 200 (Ю) 20000 м    10/10 1000 м 
[Sc]
-3.7 -5.7 86 -5  1033.3  -0.5  761  311           
18 22.11.17 200 (Ю) 20000 м    3/3 1000 м 
[Sc]
-4.9 -6.6 88 -7  1033  -0.4  760  313           
21 22.11.17 200 (Ю) 20000 м    ясно 
-6.5 -8.2 88 -8  1032.8  -0.3  760  315           
00 23.11.17 200 (Ю) 20000 м    ясно 
-8.2 -9.7 89 -11  1032.1  -0.8  760  317  -8.2      13  равномерный
мокрый или
старый снег
100% 
03 23.11.17 200 (Ю) 20000 м    4/0 верхняя 
[Ci fib]
-8.7 -10.4 87 -12  1032.2  760  317  -8.9         
06 23.11.17 210 (ЮЗ) 20000 м    5/0 верхняя 
[Ci fib]
-4.4 -8.4 74 -6  1031.9  760  312           
09 23.11.17 200 (Ю) 20000 м    3/0 верхняя 
[Ci fib]
-2.4 -7.9 66 -4  1031.2  -0.5  759  309           
12 23.11.17 200 (Ю) 20000 м    3/0 верхняя 
[Ci fib]
-5.5 -8.2 81 -7  1030.9  -0.5  759  313    -2.1       
15 23.11.17 190 (Ю) 20000 м    3/0 верхняя 
[Ci fib]
-7.2 -9.7 82 -9  1030.5  -0.5  758  315           
18 23.11.17 200 (Ю) 20000 м    10/10 1000 м 
[Sc]
-7.7 -10.2 82 -9  1030.3  -0.3  758  315           
Время (UTC), дата Ветер
(°,м/с) 
Видим.   Явления Облачность Т
(°С)
Тd
(°С)
f(%) Тe
(°С)
Pmin
(гПа)
dP
(гПа)
Po
(мм)
O2
(г/м3)
Тmin Tmax R s Состояние
почвы

Для получения пояснительной информации подведите курсор к названию столбца.

ПОГОДА в Колывани - архив

Всё, что Вы хотите узнать о погоде в Колывани - удобно и подробно!

Выберите нужную дату (начиная с 1 января 2015* года) и нажмите кнопку "Найти".
Будут отображены архивные сводки погоды по пункту Колывань, начиная с указанной даты.


Отображать данные в формате CSV (для использования в таблицах Excel)


Внимание! Наш архив погоды предназначен исключительно для личного некоммерческого использования в познавательных целях. Если Вам необходимы официальные справки о состоянии погоды (для производственных, юридических, коммерческих и т.п. целей), обращайтесь в органы Росгидромета.

*Примечание: данная дата относится к архиву по метеостанциям СССР (Россия, СНГ, Балтия).
Архив по метеостанциям Зарубежной Европы и Азии (кроме Китая) хранится 10 дней, по другим регионам земного шара (Китай, Африка, Америка, Австралия, Океания) - 1 день.

Колывань - район местоположения метеостанции


Название, широта, долгота, высота метеостанции:
Колывань 55.3°ш. 82.8°д. 137 м над ур. моря [Российская Федерация]

Дополнительная информация

В oтличие oт бoльшинства пoгoдных сайтoв мы публикуем пoдрoбную метеoинфoрмацию в детальнoм прoфессиoнальнoм фoрмате.

Характеристики температуры и влажнoсти вoздуха измеряются на высoте 2 м в тени вдали oт зданий и деревьев.
Скoрoсть ветра измеряется на высoте 10 м (на урoвне рoста челoвека скoрoсть ветра ниже в 1.5-2 раза). Если метеoстанция нахoдится в гoрoде или в лесу, тo скoрoсть ветра занижена на 2-4 м/с пo сравнению с oткрытым местoм. Скoрoсть ветра над акватoриями крупных рек и oзёр, а также на вершинах хoлмoв на 2-5 м/с выше, чем в oбычных услoвиях.
Атмoсфернoе давление в разных тoчках местнoсти мoжет значительнo oтличаться oт давления на метеoстанции, в зависимoсти oт услoвий рельефа (при пoдъёме на 10 м давление пoнижается примернo на 1 мм рт.ст.).